www.pogodaiklimat.ru

Погода и климат >> Архив погоды >> Казахстан >> Тайпак


ПОГОДА в Тайпаке

АРХИВ ПОГОДЫ в Тайпаке

Время (UTC), дата Ветер
(напр.,м/с)
 
Видим.   Явления Облачность Т
(С)
Тd
(С)
f
(%)
Тe
(С)
Тes
(С)
Комфортность P
(гПа)
Po
(гПа)
Тmin
(С)
Tmax
(С)
R
(мм)
R24
(мм)
S
(см)
15 11.07 З 2 10 км 3/0
[Ac trans]
+33.8 +7.1 19 +32 +33 жарко 1009.3 1009.1 +36.5
18 11.07 СЗ 2 н/о ясно +28.1 +6.8 26 +27 +27 жарко 1010.1 1009.9 +36.5
21 11.07 С 2 н/о ясно +23.0 +7.2 36 +24 +24 комфорт 1009.9 1009.7
00 12.07 С 2 10 км ясно +19.6 +7.7 46 +21 +21 комфорт 1009.8 1009.6
03 12.07 СЗ 2 10 км 4/0
[Ci fib]
+24.7 +9.8 39 +26 +28 жарко 1010.0 1009.8
06 12.07 СЗ 2 10 км 1/0
[Ac trans]
+32.0 +9.7 25 +31 +41 жарко 1009.7 1009.5 +19.6
09 12.07 С 4 10 км 8/8 600 м
[Cb calv]
+29.6 +8.9 27 +29 +31 жарко 1009.4 1009.2
12 12.07 СЗ 4 10 км 8/8 600 м
[Cb calv]
+31.7 +9.4 25 +31 +32 жарко 1008.6 1008.4
15 12.07 С 2 10 км 6/0
[Ac trans]
+31.6 +10.8 28 +32 +32 жарко 1007.4 1007.2 +33.5
18 12.07 СЗ 2 н/о 9/0
[Ac trans]
+27.3 +10.9 36 +28 +28 жарко 1007.5 1007.3 +33.5
21 12.07 З 2 н/о ясно +22.9 +11.0 47 +25 +25 комфорт 1007.4 1007.2
00 13.07 З 2 10 км 3/0
[Ac trans]
+20.8 +11.2 54 +23 +23 комфорт 1007.6 1007.4
03 13.07 СЗ 2 10 км 3/0
[Ci fib]
+23.7 +12.5 49 +26 +28 жарко 1007.9 1007.7
06 13.07 СВ 2 10 км 3/0
[Ci fib]
+29.9 +10.2 29 +30 +42 жарко 1007.9 1007.7 +19.4
09 13.07 СВ 2 10 км 3/3 1000 м
[Cu med, cong]
+32.2 +10.0 26 +32 +44 жарко 1006.9 1006.7
12 13.07 10 км н/о +34.5 +9.4 22 +33 +37 жарко 1006.1 1005.9
15 13.07 СЗ 2 10 км 8/8 1000 м
[Cu med, cong]
+32.3 +9.7 25 +32 +32 жарко 1005.6 1005.4 +34.6
18 13.07 штиль 0 н/о 8/8 1000 м
[Cu med, cong]
+27.2 +10.0 34 +28 +28 жарко 1006.2 1006.0 +34.6
21 13.07 штиль 0 н/о ясно +24.4 +10.8 42 +26 +26 жарко 1006.1 1005.9
00 14.07 СВ 2 10 км 4/0
[Ac trans]
+22.9 +9.6 43 +25 +25 комфорт 1006.1 1005.9
03 14.07 СВ 2 10 км 8/0
[Ac trans]
+23.8 +11.6 46 +25 +27 комфорт 1006.8 1006.6
06 14.07 штиль 0 10 км 5/0
[Ac lent]
+31.8 +10.7 27 +32 +42 жарко 1006.5 1006.3 +21.5
09 14.07 ЮВ 2 10 км 8/8 1000 м
[Cu med, cong]
+35.2 +11.7 24 +35 +38 очень
жарко
1005.1 1004.9
12 14.07 штиль 0 10 км 9/9 600 м
[Cb calv]
+33.6 +11.6 26 +33 +35 жарко 1004.3 1004.1
15 14.07 ЮВ 2 10 км 6/6 600 м
[Cb calv]
+33.0 +12.1 28 +33 +34 жарко 1003.8 1003.6 +36.0
18 14.07 штиль 0 н/о 8/8 600 м
[Cb calv]
+28.0 +12.7 39 +29 +29 жарко 1004.3 1004.1 +36.0
21 14.07 С 2 н/о ясно +26.6 +9.6 34 +27 +27 жарко 1004.3 1004.1
00 15.07 штиль 0 10 км 8/0
[Ac trans]
+24.6 +9.6 39 +25 +25 комфорт 1004.6 1004.4
03 15.07 В 2 10 км 6/0
[Ac trans]
+27.8 +9.9 33 +28 +30 жарко 1005.3 1005.1
06 15.07 В 2 10 км 6/0
[Ac trans]
+33.7 +9.1 22 +32 +41 жарко 1004.9 1004.7 +23.6
09 15.07 В 2 10 км 6/6 1000 м
[Cu med, cong]
+36.1 +9.2 19 +34 +41 очень
жарко
1004.1 1003.9
12 15.07 В 2 10 км 8/8 600 м
[Cb calv]
+35.0 +10.1 22 +34 +36 очень
жарко
1003.7 1003.5
15 15.07 З 2 10 км 9/9 600 м
[Cb calv]
+33.7 +11.0 25 +33 +33 жарко 1003.5 1003.3 +36.4
18 15.07 штиль 0 н/о 9/9 600 м
[Cb calv]
+29.7 +10.9 31 +30 +30 жарко 1004.6 1004.4 +36.4
21 15.07 штиль 0 н/о 10/10 600 м
[Cb calv]
+28.0 +12.9 39 +29 +29 жарко 1003.8 1003.6
00 16.07 СЗ 2 10 км 6/6 600 м
[Cb calv]
+26.7 +10.0 35 +27 +27 жарко 1003.7 1003.5
03 16.07 С 2 10 км 8/8
[Cb calv]
+27.0 +10.7 36 +28 +28 жарко 1004.3 1004.1
06 16.07 В 2 10 км {ливн. осадки} 9/9 600 м
[Cb calv]
+30.1 +12.3 33 +31 +32 жарко 1004.1 1003.9 +25.7
09 16.07 В 4 10 км {ливн. осадки, метель} 10/10 600 м
[Cb calv]
+30.1 +12.9 35 +31 +31 жарко 1004.6 1004.4
12 16.07 СВ 4 10 км {ливн. осадки, метель} 9/9 600 м
[Cb calv]
+30.5 +13.8 36 +32 +33 жарко 1003.0 1002.8
15 16.07 В 4 10 км 9/9 600 м
[Cb calv]
+32.5 +11.9 28 +33 +33 жарко 1001.7 1001.5 +32.7
18 16.07 СВ 4 н/о пыльный позёмок {метель} 10/10 600 м
[Cb calv]
+30.8 +7.9 24 +30 +30 жарко 1001.1 1000.9 +32.7 0.0
21 16.07 СВ 10
{16}
н/о пыльный позёмок {метель} 10/10 600 м
[Cb calv]
+30.8 +10.4 28 +31 +31 жарко 1000.0 999.8
00 17.07 В 4 10 км {метель} 10/10 600 м
[Cb calv]
+29.6 +11.8 33 +30 +30 жарко 999.5 999.3
03 17.07 ЮВ 4
{20}
10 км {метель} 8/8 600 м
[Cb calv]
+24.9 +17.8 65 +29 +30 душно 1002.0 1001.8
06 17.07 Ю 2 10 км {метель} 8/8 600 м
[Cb calv]
+27.2 +17.2 54 +31 +34 душно 1002.5 1002.3 +24.7
09 17.07 ЮЗ 2 10 км 8/8 1000 м
[Cu med, cong]
+31.6 +14.2 35 +33 +37 жарко 1002.4 1002.2
12 17.07 ЮЗ 2 10 км 8/8 1000 м
[Cu med, cong]
+32.8 +14.2 33 +34 +36 очень
жарко
1002.8 1002.6
15 17.07 ЮЗ 2 10 км 8/8 1000 м
[Cu med, cong]
+31.4 +12.5 31 +32 +32 жарко 1002.9 1002.7 +33.7
18 17.07 ЮЗ 2 н/о 8/8 1000 м
[Cu med, cong]
+27.7 +13.3 41 +29 +29 жарко 1003.5 1003.3 +33.7
21 17.07 ЮЗ 2 н/о 5/5 1000 м
[Cu med, cong]
+25.2 +13.0 47 +27 +27 жарко 1003.6 1003.4
00 18.07 ЮЗ 2 10 км 6/0
[Ac trans]
+23.1 +12.0 50 +26 +26 жарко 1003.7 1003.5
03 18.07 Ю 2 10 км 3/0
[Ac trans]
+26.1 +13.6 46 +28 +30 жарко 1004.5 1004.3
06 18.07 ЮЗ 2 10 км 5/5 1000 м
[Cu hum]
+31.8 +12.2 30 +32 +38 жарко 1005.0 1004.8 +21.7
09 18.07 Ю 4 10 км 6/6 1000 м
[Cu hum]
+23.4 +11.5 47 +26 +30 жарко 1004.4 1004.2
12 18.07 ЮЗ 4 10 км 8/8 1000 м
[Cu hum]
+34.4 +9.8 22 +33 +35 жарко 1003.7 1003.5

 

Местоположение метеостанции Тайпак (Западно-Казахстанская область, Казахстан): широта 49.05 долгота 51.87 высота над уровнем моря 2 м.

В архиве по умолчанию представлена погода в Тайпаке за последнюю неделю. Архивные данные за месяц целиком и за предыдущие месяцы, начиная с января 2011 года, Вы можете получить, выбрав интересующий диапазон дат из раскрывающегося списка и нажав кнопку "Ввод!".


*Определитесь, кто Вы:
робот инопланетянин человек

Внимание! Время в таблицах - всемирное. Для получения местного времени необходимо прибавить поправку, которая в Тайпаке равна 5 ч.

Смотрите также архив погоды в соседних городах и на ближайших метеорологических станциях:

Погода в Индерборском (Атырауская область, Казахстан) (62 км)
Погода в Карабау (Атырауская область, Казахстан) (102 км)
Погода в Жангала (Западно-Казахстанская область, Казахстан) (116 км)
Погода в Каратобе (Западно-Казахстанская область, Казахстан) (131 км)
Погода в Чапаево (Западно-Казахстанская область, Казахстан) (137 км)
Погода в Джамбейты (Западно-Казахстанская область, Казахстан) (143 км)
Погода в Махамбете (Атырауская область, Казахстан) (155 км)
Погода в Жалпактале (Западно-Казахстанская область, Казахстан) (186 км)
Погода в Макате (Атырауская область, Казахстан) (189 км)
Погода в Анкаты (Западно-Казахстанская область, Казахстан) (198 км)

Пояснения к столбцам:

Ветер - указаны скорость ветра в м/с - средняя за 10 мин, порывы в срок и между сроками (в фигурных скобках) и направление, откуда дует ветер: С - северный, СВ - северо-восточный, В - восточный, ЮВ - юго-восточный, Ю - южный, ЮЗ - юго-западный, З - западный, СЗ - северо-западный.
Видимость - горизонтальная дальность видимости в метрах или километрах. При видимости от 1 до 10 км при отсутствии осадков обычно наблюдается дымка, при ухудшении видимости до 1 км и менее - туман. В сухую погоду видимость может ухудшаться дымом, пылью или мглою.
Явления - указаны атмосферные явления, наблюдавшиеся в срок или в последний час перед сроком; фигурными скобками обозначены явления, наблюдавшиеся между сроками (за 1-3 часа до срока); квадратными скобками обозначены град или гололедные отложения с указанием их диаметра в мм.
Облачность - указаны через наклонную черту общая и нижняя облачность в баллах и высота нижней границы облаков в метрах; квадратными скобками обозначены формы облаков: Ci - перистые, Cs - перисто-слоистые, Cc - перисто-кучевые, Ac - высококучевые, As - высокослоистые, Sc - слоисто-кучевые, Ns - слоисто-дождевые, Cu - кучевые, Cb - кучево-дождевые. Подробнее классификацию облаков см. в Атласе облаков (PDF).
T - Температура воздуха - температура, измеренная на высоте 2 м над землей.
Td - Температура точки росы - температура, при понижении до которой содержащийся в воздухе водяной пар достигнет насыщения.
f - Относительная влажность воздуха - влажноcть воздуха, измеренная на высоте 2 м над землей.
Te - Эффективная температура - температура, которую ощущает одетый по сезону человек в тени. Характеристика душности погоды. При расчете учитывается влияние влажности воздуха и скорости ветра на теплоощущения человека.
Tes - Эффективная температура на солнце - температура, которую ощущает человек, с поправкой на солнечный нагрев. Характеристика знойности погоды. Зависит от высоты солнца над горизонтом, облачности и скорости ветра. Ночью, в пасмурную погоду, а также при ветре 12 м/с и более поправка равна нулю.
P - Атмосферное давление - приведенное к уровню моря атмосферное давление.
Po - Атмосферное давление - измеренное на уровне метеостанции атмосферное давление.
Tmin - Минимальная температура - минимум температуры воздуха на высоте 2 м над землей.
Tmax - Максимальная температура - максимум температуры воздуха на высоте 2 м над землей.
R - Количество осадков - Количество выпавших осадков за период времени, мм. При наведении курсора мыши на число - период времени, за который выпало указанное количество осадков.
R24 - Количество осадков - Количество выпавших осадков за 24 часа, мм.
S - Снежный покров - Высота снежного покрова, см. При наведении курсора мыши на число - состояние снежного покрова и степень покрытия местности в баллах.